星链-6085 (STARLINK-6085 )

导读 | 豆包AI

STARLINK-6085是美国SpaceX公司于2023年6月23日发射的星链(Starlink)低轨互联网通信卫星,属于Starlink v1.5平台。卫星运行在近地轨道,轨道倾角约53.16°,近地点约477公里。它搭载Ku/Ka波段通信载荷,采用霍尔推进技术,具备自主避撞能力,旨在为全球提供高速宽带互联网服务,目前仍在轨正常工作。

Basic Information
目录编号:
57115
目录名称:
STARLINK-6085
国际标识:
2023-090Q
轨道中心:
EARTH
卫星名称:
星链-6085
卫星全名:
星链-6085 (STARLINK-6085 )
卫星状态:
在轨 (已飞行996 天)
发射日期:
2023-06-23 UTC
国别 :
美国 (US)
星等 :
--
Orbit Information
数据来源 国际轨道数据 AOE轨道数据
星历时间 2026-03-15T19:28:21+0800
12小时前
查看轨道信息
2026-03-12T08:00:00+0800
3天前
查看轨道信息
半长轴 6903.967km 6904.498km
偏心率 0.0020057 0.0019594
轨道倾角 42.999° 43.000°
近地点辐角 242.279° 221.149°
升交点赤经 231.375° 250.593°
平近点角 117.602° 248.833°
近地点 511.982km 512.832km
远地点 539.678km 539.89km
周期 95.150分钟 95.161分钟
每日圈数 15.134035 15.132291
Detailed Information
固有亮度:
5
最大亮度:
2.4
卫星平台:
Starlink v1.5
覆盖范围:
全球
运营商:
太空探索技术公司
运营商所在国:
美国
制造商(研发单位):
太空探索技术公司
制造商所在国:
美国
使用方式:
暂无
Satellite Introduction
星链(Starlink)计划是由太空探索技术公司(SpaceX)提出的一个巨型低轨卫星互联网星座项目,计划在2019年至2024年间在太空搭建由约1.2万颗卫星组成的“星链”网络,其中1584颗将部署在地球上空550千米处的近地轨道,并从2020年开始工作。该卫星仍在工作。
2D Orbit Map
3D Orbit Map
Orbit Altitude Analysis Chart
Orbit Inclination Analysis Chart
Orbit Comprehensive Analysis Chart
View Comprehensive Chart